Weather History for Pompano Beach, FL

Change the Weather History Date:

Friday, August 2, 2013

  Actual Average Record
Temperature  
Mean Temperature 84 °F -  
Max Temperature 90 °F 91 °F 97 °F (1980)
Min Temperature 78 °F 74 °F 63 °F (1976)
Cooling Degree Days 18    
Growing Degree Days 34 (Base 50)    
Moisture  
Dew Point 74 °F    
Average Humidity 74    
Maximum Humidity 90    
Minimum Humidity 57    
Precipitation  
Precipitation 0.15 in - - ()
Sea Level Pressure  
Sea Level Pressure 30.00 in    
Wind  
Wind Speed 6 mph (SSE)    
Max Wind Speed 13 mph    
Max Gust Speed -    
Visibility 10 miles    
Events Rain , Thunderstorm    
Averages and records for this station are not official NWS values.
T = Trace of Precipitation, MM = Missing Value Source: NWS Daily Summary

Daily Weather History Graph

Daily Weather History Graph

Search for Another Location

Airport:

Trip Planner

Search our weather history database for the weather conditions in past years. The results will help you decide how hot, cold, wet, or windy it might be!

Date:

Astronomy

Aug. 02, 2013 Rise Set
Actual Time 6:46 AM EDT 8:06 PM EDT
Civil Twilight 6:21 AM EDT 8:31 PM EDT
Nautical Twilight 5:52 AM EDT 9:00 PM EDT
Astronomical Twilight 5:21 AM EDT 9:31 PM EDT
Moon 3:10 AM EDT (8/2) 4:58 PM EDT (8/2)
Length of Visible Light 14h 09m
Length of Day
13h 19m
Waning Crescent, 16% of the Moon is Illuminated
Aug 2
Waning Crescent
Aug 6
New
Aug 14
First Quarter
Aug 20
Full
Aug 28
Last Quarter

Hourly Weather History & Observations

Time (EDT) Temp. Heat Index Dew Point Humidity Pressure Visibility Wind Dir Wind Speed Gust Speed Precip Events Conditions
12:53 AM 82.9 °F 89.4 °F 73.9 °F 74% 29.97 in 10.0 mi East 11.5 mph - N/A   Unknown
1:53 AM 82.9 °F 88.8 °F 73.0 °F 72% 29.96 in 10.0 mi East 6.9 mph - N/A   Unknown
2:53 AM 82.0 °F 87.4 °F 73.0 °F 74% 29.94 in 10.0 mi East 5.8 mph - N/A   Unknown
3:53 AM 82.9 °F 88.8 °F 73.0 °F 72% 29.94 in 10.0 mi ESE 3.5 mph - N/A   Unknown
4:53 AM 82.0 °F 87.9 °F 73.9 °F 76% 29.94 in 10.0 mi Calm Calm - N/A   Unknown
5:53 AM 81.0 °F 86.2 °F 73.9 °F 79% 29.95 in 10.0 mi Calm Calm - N/A   Unknown
6:53 AM 80.1 °F 85.1 °F 75.0 °F 85% 29.96 in 10.0 mi NW 5.8 mph - N/A   Unknown
7:53 AM 81.0 °F 86.7 °F 75.0 °F 82% 29.96 in 10.0 mi NW 3.5 mph - N/A   Scattered Clouds
8:53 AM 84.0 °F 91.2 °F 73.9 °F 72% 29.99 in 10.0 mi WNW 5.8 mph - N/A   Scattered Clouds
9:53 AM 84.9 °F 91.4 °F 73.0 °F 67% 30.01 in 10.0 mi Calm Calm - N/A   Scattered Clouds
10:53 AM 87.1 °F 95.4 °F 73.9 °F 65% 30.01 in 10.0 mi WSW 3.5 mph - N/A   Scattered Clouds
11:53 AM 88.0 °F 94.7 °F 72.0 °F 59% 30.03 in 10.0 mi NW 4.6 mph - N/A   Mostly Cloudy
12:53 PM 89.1 °F 96.0 °F 72.0 °F 57% 30.03 in 10.0 mi West 5.8 mph - N/A   Mostly Cloudy
1:53 PM 89.1 °F 99.1 °F 75.0 °F 63% 30.02 in 10.0 mi SSE 6.9 mph - N/A   Mostly Cloudy
2:53 PM 89.1 °F 100.2 °F 75.9 °F 65% 30.00 in 10.0 mi SE 12.7 mph - N/A   Mostly Cloudy
3:53 PM 88.0 °F 98.5 °F 75.9 °F 67% 30.00 in 10.0 mi SE 12.7 mph - N/A   Unknown
4:53 PM 87.1 °F 97.3 °F 75.9 °F 69% 29.99 in 10.0 mi SSE 12.7 mph - N/A   Scattered Clouds
5:53 PM 87.1 °F 97.3 °F 75.9 °F 69% 30.00 in 10.0 mi SE 11.5 mph - N/A   Scattered Clouds
6:53 PM 84.0 °F 92.6 °F 75.9 °F 76% 30.01 in 10.0 mi East 10.4 mph - N/A Thunderstorm Mostly Cloudy
7:42 PM 78.8 °F - 73.4 °F 83% 30.05 in 1.8 mi West 4.6 mph - 0.12 in Rain , Thunderstorm Heavy Rain
7:53 PM 78.1 °F - 71.1 °F 79% 30.05 in 5.0 mi West 3.5 mph - 0.15 in Rain , Thunderstorm Light Rain
8:53 PM 78.1 °F - 75.0 °F 90% 30.06 in 10.0 mi Calm Calm - N/A   Mostly Cloudy
9:53 PM 80.1 °F 85.1 °F 75.0 °F 85% 30.07 in 10.0 mi Calm Calm - N/A   Unknown
10:53 PM 81.0 °F 86.2 °F 73.9 °F 79% 30.07 in 10.0 mi SSE 5.8 mph - N/A   Unknown
11:53 PM 82.0 °F 89.4 °F 75.9 °F 82% 30.07 in 10.0 mi South 3.5 mph - N/A   Unknown